Location: Noordwijk
(52.2400°N, 4.4500°E)
Time: 06:57:08
(UTC+00:00)

CAS-4B - Pass Details

Date: 10 December 2022
Orbit: 515 x 531 km, 43.0° (Epoch: 28 January)

Event Time Altitude Azimuth Distance (km) Brightness Sun altitude
Exits shadow 05:34:05 14° 218° (SW) 1,515 ? -18.0°
Maximum altitude 05:36:20 22° 176° (S) 1,188 ? -17.7°
Drops below altitude 10° 05:39:31 10° 125° (SE) 1,780 ? -17.2°
Sets 05:42:06 0° 110° (ESE) 2,674 ? -16.9°
